Location: K?s?ram
(16.8935°N, 80.5866°E)
Time: 06:16:25
(UTC+00:00)

Daily predictions for brighter satellites

Satellite Brightness Start Highest point End
(mag) Time Altitude Azimuth Time Altitude Azimuth Time Altitude Azimuth
Meteor 1-12 Rocket 4.5 13:28:35 10° N 13:34:13 79° W 13:39:52 10° S
Cosmos 1908 Rocket 4.1 13:31:34 10° NNW 13:35:58 66° W 13:40:24 10° S
Okean 2 3.6 13:34:11 10° SSE 13:38:09 48° E 13:42:08 10° NNE
Meteor 1-15 Rocket 4.4 13:33:05 10° N 13:39:00 88° E 13:44:54 10° S
H-2A R/B 4.0 13:37:19 10° ENE 13:39:01 12° E 13:40:42 10° ESE
DASH 3.2 13:28:09 10° WNW 13:39:41 78° NNE 13:42:46 10° ESE
Iridium 2 3.8 13:36:43 10° N 13:40:22 76° W 13:44:01 10° S
USA 276 2.0 13:40:09 10° SW 13:43:07 86° NW 13:46:06 10° NE
USA 267 4.1 13:41:42 10° ENE 13:47:02 27° SE 13:52:22 10° S
Cosmos 1470 2.9 13:47:37 10° N 13:51:26 54° E 13:55:16 10° SSE
Cosmos 1674 2.6 13:47:39 10° S 13:51:26 82° E 13:55:13 10° N
CZ-4C R/B 2.9 13:48:45 10° N 13:52:06 89° WNW 13:55:31 10° SSW
Cosmos 1378 Rocket 4.2 13:50:34 10° SSE 13:54:37 36° E 13:58:40 10° NNE
Cosmos 2221 Rocket 3.5 13:52:44 10° S 13:57:07 68° E 14:01:32 10° N
HJ-1C 4.0 13:56:16 10° S 13:59:22 53° W 14:02:29 10° NNW
Cosmos 1242 Rocket 2.3 13:56:10 10° N 13:59:31 64° E 14:02:51 10° SSE
Cosmos 2278 Rocket 4.0 13:55:01 10° NW 13:59:54 31° WSW 14:04:48 10° SSW
Cosmos 1674 Rocket 3.8 13:57:29 10° SSE 14:01:36 47° E 14:05:46 10° NNE
Okean-O 3.6 14:00:22 14° SE 14:03:27 29° ENE 14:07:14 10° NNE
Cosmos 1553 Rocket 4.3 13:58:47 10° SSE 14:04:44 46° E 14:10:46 10° NNE
Cosmos 1626 2.6 14:04:35 10° SSW 14:08:10 61° W 14:11:45 10° N
OBJECT-B 0.5 14:08:29 18° SSE 14:10:21 54° ENE 14:13:08 10° N
Okean O Rocket 2.8 14:06:55 10° S 14:11:02 42° W 14:15:12 10° NNW
H-2A R/B 3.7 14:10:00 18° E 14:11:13 21° ENE 14:14:07 10° NNE
Hubble Space Telescope 2.3 14:08:11 10° NW 14:11:44 28° NNE 14:14:52 12° ENE
GPS 2-14 Rocket1 3.4 14:11:53 10° W 14:15:52 53° N 14:19:19 13° ENE
Cosmos 1607 4.1 14:10:45 10° S 14:16:47 50° ESE 14:22:46 10° NE
Ariane H10+ 2.9 14:14:35 10° WSW 14:20:32 24° SSW 14:22:10 19° SSE
SJ-6B 3.1 14:20:24 26° SE 14:22:00 42° ENE 14:25:35 10° N
Iridium 4 Rocket 3.9 14:16:53 10° NNE 14:22:34 54° E 14:27:00 15° SSE
Fermi 4.2 14:19:13 10° WNW 14:23:15 53° NNE 14:25:28 24° E
CZ-4 R/B 2.9 14:21:58 10° SSW 14:25:50 37° W 14:29:42 10° NNW
Cosmos 1300 Rocket 4.0 14:23:05 10° NNW 14:27:28 64° W 14:31:49 10° S
KM-V1 2.8 14:26:37 10° WSW 14:29:08 76° SW 14:29:08 76° SW
Cosmos 2297 3.7 14:24:18 10° N 14:29:57 70° ENE 14:33:27 24° SSE
GPS 2-17 Rocket1 3.0 14:29:21 10° W 14:33:47 80° N 14:36:21 25° ENE
Cosmos 1943 Rocket 2.4 14:28:42 10° NNW 14:34:16 71° WSW 14:38:37 17° S
Intercosmos 25 3.4 14:30:57 10° N 14:34:24 66° E 14:36:49 26° SSE
Cosmos 1437 Rocket 2.9 14:32:05 10° N 14:36:01 55° E 14:37:05 41° SE
Gblst 52 Del rocket 4.4 14:32:27 10° NNW 14:39:00 69° NE 14:41:41 33° SE
Okean 1 Rocket 4.3 14:36:11 10° NNE 14:39:25 25° ENE 14:39:25 25° ENE
Cosmos 1624 Rocket 4.3 14:39:43 32° SE 14:41:24 42° E 14:46:18 10° NNE
Atlas Centaur 2 4.0 14:39:40 10° NW 14:42:39 15° N 14:45:19 10° NE
ARGOS Delta rocket 4.1 14:38:40 10° N 14:43:07 63° WNW 14:47:27 10° SSW
deb Chang Zheng 4 3.7 14:40:50 24° S 14:43:14 69° WSW 14:47:24 10° NNW
Meteor 2-5 Rocket 4.4 14:45:27 32° E 14:45:27 32° E 14:50:16 10° NNE
SWARM A 4.2 14:47:42 76° SE 14:47:51 79° E 14:51:22 10° N
Milstar 3 4.0 14:39:24 10° SW 14:47:58 54° SE 15:04:05 10° ENE
SL-14 R/B 4.0 14:45:25 11° SSW 14:48:54 50° W 14:52:39 10° N
CZ-2C R/B 2.4 14:46:17 10° W 14:49:53 30° SW 14:50:25 29° SSW
Cosmos 1758 4.3 14:48:40 10° NNW 14:52:33 46° W 14:54:50 22° SSW
USA 186 3.1 14:52:25 28° WSW 14:52:35 28° W 14:55:00 10° NW
Spot 2 4.0 14:52:56 55° SSE 14:53:49 77° ENE 14:58:23 10° N
MetOp-A 3.2 14:57:36 75° SSE 14:57:56 87° ENE 15:02:08 10° N
Cosmos 1975 Rocket 3.9 15:00:33 36° NE 15:00:33 36° NE 15:03:37 10° NNE
Delta 7925 Rocket 4.5 14:50:41 10° WNW 14:59:51 77° SSW 15:02:42 42° SE
USA 306 3.4 14:56:40 10° NNW 15:00:19 45° NE 15:00:19 45° NE
Cosmos 2056 Rocket 3.4 14:59:33 37° S 15:01:41 74° ESE 15:07:02 10° NNE
Cosmos 1745 Rocket 4.2 14:59:06 10° NNE 15:04:56 45° E 15:05:13 45° E
Cosmos 1908 4.1 15:01:30 10° NNW 15:05:12 45° W 15:05:59 39° SW
Resurs 1-3 3.6 15:04:51 65° SSW 15:05:25 78° WSW 15:09:48 10° NNW
GOES 2 Rocket 3.5 15:01:00 10° SW 15:05:48 61° SSE 15:05:50 61° SSE
ATLAS 3B CENTAUR R/B 4.2 14:55:06 10° WNW 15:09:52 65° NNE 15:15:45 31° E
Cosmos 1420 Rocket 3.8 15:11:03 71° E 15:11:03 71° E 15:16:13 10° NNE
Meteosat 1 Rocket2 4.2 15:07:30 10° NW 15:11:13 29° NNE 15:11:18 29° NNE
Delta 2 Rocket 4.5 15:09:09 10° W 15:11:53 32° NW 15:11:53 32° NW
Landsat 7 3.7 15:14:03 76° SSW 15:14:20 80° WSW 15:19:03 10° NNW
H-2A R/B 3.7 15:10:48 10° N 15:14:48 34° WNW 15:18:51 10° SW
SPOT 1/Viking Rocket 4.1 15:18:47 44° NE 15:18:47 44° NE 15:22:50 10° N
Cosmos 1238 Rocket 4.4 15:17:26 10° NNW 15:23:24 58° W 15:26:16 32° SSW
Resurs 01 Rocket 2.5 15:26:34 44° N 15:26:34 44° N 15:29:38 10° N
IRS-1A Rocket 4.3 15:26:16 69° ENE 15:26:16 69° ENE 15:32:04 10° N
USA 307 4.0 15:22:26 10° NNW 15:25:11 40° NNW 15:25:11 40° NNW
Meteor 1-24 Rocket 3.8 15:29:01 60° NNE 15:29:01 60° NNE 15:33:21 10° N
Cosmos 2315 Rocket 3.9 15:27:15 69° S 15:28:04 85° E 15:34:25 10° N
Ariane Rocket 3.9 15:29:49 39° NNE 15:29:49 39° NNE 15:33:17 10° N
USA 267 4.0 15:23:40 10° NNE 15:29:56 50° NW 15:36:11 10° WSW
Cosmos 2369 Rocket 2.3 15:24:41 10° NNW 15:30:15 66° WSW 15:30:37 64° SW
Delta 202 3.7 15:28:17 10° WSW 15:33:32 82° SW 15:33:32 82° SW
Cosmos 1656 Rocket 3.8 15:32:07 10° NNW 15:37:17 69° WNW 15:37:17 69° WNW
Cosmos 1953 4.1 15:34:43 10° NNW 15:37:16 30° WNW 15:37:16 30° WNW
Mugunghwa Rocket 4.5 15:32:17 10° SW 15:40:26 69° SSE 15:40:42 69° SE
Meteor 2-10 Rocket 4.2 15:36:02 10° N 15:39:27 45° N 15:39:27 45° N
Hubble Space Telescope 3.3 15:48:54 10° WNW 15:50:07 19° WNW 15:50:07 19° WNW
Cosmos 1709 Rocket 4.4 15:48:06 10° N 15:52:47 53° NNE 15:52:47 53° NNE
NOSS 3-4 (A) 4.1 15:59:24 10° NNW 16:06:31 72° NNE 16:06:31 72° NNE
NOSS 3-4 (C) 4.1 15:59:31 10° NNW 16:06:32 71° NNE 16:06:32 71° NNE
Aurora 2 Rocket 4.3 16:03:44 10° WSW 16:10:22 51° WSW 16:10:22 51° WSW
BREEZE-M DEB (TANK) 4.3 16:09:57 10° NW 16:13:23 55° W 16:13:23 55° W
ATLAS 3B CENTAUR R/B 4.2 16:59:50 10° WNW 17:08:30 45° W 17:08:30 45° W
CENTAUR R/B 4.4 20:42:12 20° N 20:42:12 20° N 20:44:11 10° N
SL-16 R/B 4.0 20:41:53 32° NNE 20:41:53 32° NNE 20:45:10 10° N
Cosmos 2219 Rocket 4.1 20:43:20 10° NNE 20:46:51 25° NE 20:46:51 25° NE
Cosmos 2333 Rocket 4.0 21:02:56 10° N 21:05:16 25° N 21:05:16 25° N
CZ-2C R/B 3.9 21:25:34 10° NE 21:28:37 30° ENE 21:28:37 30° ENE
Cosmos 2227 Rocket 2.8 21:32:28 52° NNE 21:32:28 52° NNE 21:36:41 10° NNE
USA 215 3.9 21:38:24 10° NNE 21:44:25 41° NW 21:44:37 41° NW
Cosmos 44 Rocket 3.8 21:48:27 57° NE 21:48:27 57° NE 21:52:22 10° NNE
Meteor 1-20 Rocket 4.4 21:51:07 60° NNW 21:51:07 60° NNW 21:55:46 10° N
ATLAS CENTAUR R/B 4.2 21:50:10 10° SE 21:51:35 11° ESE 21:53:02 10° E
Cosmos 2219 3.5 21:53:23 55° NW 21:53:23 55° NW 21:58:09 10° N
Meteor 1-27 Rocket 4.0 21:47:39 10° N 21:53:09 63° E 21:54:35 46° SE
MOS 1-B Rocket 4.1 21:51:17 48° SSE 21:53:13 84° ENE 22:00:17 10° N
FENGYUN 3A 3.7 21:48:02 10° N 21:53:01 73° NNW 21:53:01 73° NNW
Cosmos 2263 Rocket 4.1 21:51:31 16° SE 21:54:23 24° ESE 21:58:47 10° NE
CZ-3B Rocket 4.0 21:30:44 10° W 21:58:46 26° SSE 22:00:53 10° SE
COSMOS 2428 2.6 21:50:36 10° NNW 21:56:19 90° ENE 21:56:39 80° SSE
Cosmos 1725 Rocket 4.4 21:51:27 10° NNW 21:56:13 46° NW 21:56:13 46° NW
ARIANE 5 R/B 2.7 21:56:00 10° NNE 22:01:00 65° ESE 22:01:43 58° SE
Cosmos 2297 Rocket 3.7 22:03:08 22° NW 22:03:08 22° NW 22:06:11 10° NNW
Cosmos 2233 Rocket 3.8 21:58:54 10° N 22:05:01 76° W 22:06:12 59° SSW
ALOS 2.5 22:03:47 10° N 22:07:41 55° NW 22:07:41 55° NW
Cosmos 1544 4.3 22:08:59 37° E 22:08:59 37° E 22:12:02 10° NNE
Cosmos 1805 Rocket 3.6 22:09:28 70° ESE 22:09:40 71° E 22:14:03 10° N
Cosmos 2237 Rocket 3.8 22:05:22 10° N 22:10:25 34° ENE 22:15:27 10° SE
Cosmos 1743 Rocket 3.9 22:12:48 55° NNW 22:12:48 55° NNW 22:16:26 10° N
Cosmos 1515 Rocket 3.5 22:07:42 10° N 22:12:03 78° E 22:12:12 76° ESE
Helios 1B rocket 4.1 22:11:34 10° NNW 22:13:29 23° NNW 22:13:29 23° NNW
Meteor 1-29 3.8 22:13:58 10° NNE 22:16:34 48° NE 22:16:34 48° NE
Cosmos 1937 Rocket 4.1 22:18:45 10° NNW 22:22:36 38° WNW 22:22:36 38° WNW
Sich 1 2.9 22:23:32 60° S 22:24:19 87° E 22:28:38 10° N
SL-24 R/B - RUBIN 2 3.8 22:25:02 55° WSW 22:26:01 69° WNW 22:30:47 10° NNE
Meteor 1-5 Rocket 4.2 22:23:29 27° S 22:26:29 74° E 22:31:47 10° N
Cosmos 2219 Rocket 4.1 22:27:26 10° NW 22:28:27 14° WNW 22:28:27 14° WNW
CZ-2D R/B 3.4 22:27:49 10° N 22:32:00 73° WNW 22:32:52 54° SW
Intelsat 5-1 Rocket 2.7 22:35:11 23° N 22:35:11 23° N 22:37:00 10° NE
Cosmos 1315 Rocket 2.7 22:35:05 52° SSW 22:35:58 79° W 22:39:59 10° N
Cosmos 1666 4.4 22:46:54 18° WNW 22:46:54 18° WNW 22:48:37 10° NNW
Cosmos 1484 Rocket 2.8 22:44:55 10° N 22:48:45 60° WNW 22:50:08 35° SW
BREEZE-M DEB (TANK) 2.7 22:55:53 36° SSW 22:55:53 36° SSW 22:58:47 10° SSE
Cosmos 1891 Rocket 4.4 22:51:39 10° N 22:57:44 68° W 23:03:57 10° S
ATLAS 3B R/B 3.2 22:52:59 10° S 22:59:05 51° ESE 23:05:22 10° NE
CZ-3 R/B 4.4 22:13:24 10° WNW 22:59:15 44° SW 23:11:23 10° SSE
Cosmos 1441 Rocket 4.2 22:57:11 10° N 23:00:59 48° E 23:04:46 10° SSE
DELTA 2 DEB (DPAF) 4.0 22:59:45 10° S 23:04:06 64° WSW 23:08:27 10° NNW
Cosmos 921 Rocket 3.8 23:02:24 24° WSW 23:04:21 35° WNW 23:08:28 10° N
GPS 2-18 Rocket1 4.4 23:02:49 20° SSW 23:04:25 27° SSE 23:07:37 10° E
Cosmos 2034 Rocket 4.3 23:00:17 10° N 23:06:26 71° E 23:12:32 10° S
CZ-2C R/B 4.2 23:05:52 10° NW 23:07:34 12° WNW 23:08:00 12° WNW
CZ-2C R/B 3.5 23:03:45 10° SSE 23:09:01 55° ENE 23:14:24 10° N
Cosmos 389 Rocket 2.3 23:07:38 12° S 23:10:51 80° W 23:14:20 10° N
Cosmos 1980 3.9 23:05:31 10° NNW 23:10:58 50° WSW 23:16:24 10° S
Cosmos 2098 Rocket 4.5 23:12:23 11° WNW 23:12:23 11° WNW 23:12:50 10° WNW
GPS 2-15 Rocket1 3.4 23:08:50 20° WSW 23:11:58 56° SSE 23:16:36 10° E
Cosmos 773 Rocket 4.2 23:10:44 14° SSW 23:15:04 50° WNW 23:20:08 10° N
Cosmos 1356 3.3 23:12:08 10° N 23:15:22 79° E 23:18:37 10° S
SL-08 R/B 3.3 23:10:43 10° S 23:15:29 80° WSW 23:20:21 10° NNW
Cosmos 2227 4.2 23:09:59 10° SSW 23:15:39 82° WNW 23:21:23 10° NNE
SWIFT 2.2 23:12:08 11° WNW 23:16:02 87° N 23:20:12 10° ESE
Meteor 1-11 Rocket 4.0 23:12:21 10° S 23:18:17 79° E 23:24:14 10° N
H-2A R/B 2.7 23:18:21 10° N 23:22:02 63° WNW 23:25:45 10° SSW
Cosmos 1378 3.5 23:18:51 10° NNW 23:22:20 41° W 23:25:48 10° SSW
SL-16 R/B 3.3 23:19:05 10° N 23:24:34 49° ENE 23:30:01 10° SE
Cosmos 1464 Rocket 4.3 23:18:32 10° NNW 23:24:35 48° W 23:30:40 10° SSW
Cosmos 1743 2.8 23:22:02 10° S 23:25:48 78° E 23:29:33 10° N
USA 276 2.3 23:24:37 10° NW 23:27:35 69° NE 23:30:33 10° SE
Mugunghwa Rocket 4.5 23:19:56 10° WNW 23:28:18 84° SSW 23:35:46 10° ESE
Cosmos 1633 Rocket 3.6 23:24:23 10° SSW 23:28:24 36° W 23:32:24 10° NNW
Cosmos 1536 2.8 23:25:44 10° S 23:29:44 80° W 23:33:45 10° N
ATLAS CENTAUR R/B 2.3 23:26:10 12° SW 23:29:51 37° WNW 23:34:11 10° N
Meteor 2-4 Rocket 3.8 23:25:10 10° NNW 23:30:44 62° W 23:36:26 10° S
Milstar 3 Cent rocket 2.7 23:30:14 10° SW 23:35:02 66° SSE 23:43:05 10° ENE
SJ-12 3.9 23:31:22 10° N 23:35:28 73° WNW 23:39:34 10° SSW
COSMOS 2455 3.0 23:29:54 10° NNW 23:35:43 54° WSW 23:41:31 10° S
Cosmos 2263 Rocket 3.3 23:33:24 10° SW 23:38:02 26° WNW 23:42:39 10° NNW
Cosmos 1862 Rocket 3.8 23:37:14 10° N 23:41:31 73° E 23:45:49 10° S
YAOGAN 6 4.4 23:41:03 10° NW 23:43:08 15° WNW 23:45:13 10° WSW
Cosmos 1346 Rocket 4.4 23:41:09 10° NW 23:43:37 16° W 23:46:06 10° SW
Cosmos 2298 Rocket 4.2 23:39:29 10° NNW 23:44:41 55° WSW 23:49:51 10° S
Delta 2 Rocket 4.2 23:41:54 10° WNW 23:46:26 42° SW 23:51:23 10° SE
